Theta_e
322 324 325 325 325 325 324 324 324 323 322 322 321 321 321 321 319 319 318 318 318 317 317 317 317 322 328 332 333 332 332 332 333 333 334 334 332 331 330 329 328 325 320 319
322 323 323 323 322 322 322 322 322 321 321 321 320 319 319 319 319 318 318 318 317 317 317 318 317 318 326 330 335 332 331 330 329 332 333 333 332 330 329 328 324 320 320 316
320 322 320 319 319 319 319 320 321 320 320 320 319 319 319 320 320 319 318 317 317 316 317 317 318 322 326 329 333 332 330 329 328 329 331 331 328 322 321 319 318 318 314 313
319 319 318 318 318 318 319 318 318 318 318 319 319 318 320 320 320 320 318 317 316 316 315 316 320 322 324 326 329 331 328 328 327 325 329 330 328 322 320 318 316 314 313 311
319 320 318 318 318 318 317 317 316 317 317 318 319 317 319 320 320 320 321 317 316 315 315 315 315 316 316 317 323 327 329 327 325 322 326 328 327 322 319 316 314 313 312 310
319 318 318 317 317 316 316 315 316 317 317 320 319 320 322 321 320 321 317 317 316 315 315 316 317 318 318 318 319 321 327 326 323 321 321 325 324 320 317 315 313 312 311 310
321 321 318 315 317 317 315 317 320 323 324 325 322 321 321 321 319 318 317 315 315 315 316 316 316 316 317 318 320 321 323 325 323 321 319 321 320 319 319 316 313 311 310 310
321 323 321 315 314 315 315 317 320 326 322 320 318 321 321 319 319 316 314 314 313 314 314 313 313 314 314 315 315 317 320 321 321 319 318 318 318 317 316 314 313 311 310 309
320 320 315 314 313 313 315 316 315 318 317 318 316 317 316 316 316 314 312 310 311 311 311 311 310 310 312 313 314 315 317 317 317 317 316 314 316 315 314 312 313 311 310 311
313 316 314 313 311 312 312 312 313 317 317 316 315 315 315 314 312 310 310 309 307 308 308 306 305 305 305 308 313 313 315 317 316 316 314 312 313 312 312 312 312 312 308 306
310 311 313 311 312 312 311 311 312 312 311 313 313 311 311 309 308 308 307 304 304 304 304 304 305 306 306 305 307 310 314 315 316 315 314 312 310 310 310 309 309 309 306 303
307 307 308 308 307 307 307 306 308 310 309 307 306 308 306 307 305 305 305 304 304 303 304 306 309 309 309 307 307 308 312 314 314 313 313 313 310 308 307 306 307 305 303 303
304 305 305 307 307 307 305 306 303 302 301 303 305 306 304 304 304 304 305 305 305 305 306 309 310 309 309 309 310 310 309 312 313 310 312 312 310 306 306 306 305 303 301 300
300 301 302 305 305 303 302 301 300 300 302 302 305 302 302 304 306 308 305 306 307 308 309 309 309 309 309 309 310 311 312 310 310 309 309 310 308 305 304 304 303 302 298 296
301 301 301 301 301 299 299 299 299 300 301 302 304 302 304 307 308 308 308 308 308 309 310 309 308 310 310 311 311 311 311 311 309 307 307 307 305 302 301 301 300 298 296 296
301 301 300 301 299 299 299 300 301 301 302 302 303 306 306 305 304 306 306 307 308 309 310 307 306 307 307 307 309 309 310 307 307 307 305 302 300 298 298 298 296 295 296 295
299 299 299 299 299 299 300 302 302 303 303 303 304 304 305 304 304 304 303 307 309 309 308 308 308 308 307 307 309 309 309 308 305 302 301 299 298 297 297 297 296 296 297 298
298 299 299 300 299 300 301 302 302 303 303 303 303 304 303 303 301 301 307 307 307 308 307 307 307 308 308 308 309 309 309 306 303 300 299 298 298 297 298 298 297 297 297 296
298 299 300 300 299 300 300 301 302 301 300 303 301 302 301 301 301 305 307 308 307 308 308 307 308 307 307 307 309 307 307 305 301 299 297 299 298 299 299 298 297 296 294 291
299 300 300 299 301 300 300 299 299 300 300 300 299 300 301 300 302 309 307 307 308 307 307 306 306 307 307 307 308 307 305 303 300 298 297 298 297 297 298 298 297 295 292 293
298 299 301 302 302 300 299 300 298 298 302 297 297 299 299 300 302 305 306 305 305 305 307 306 305 305 307 306 307 307 305 304 300 299 297 296 295 296 296 297 296 294 293 292
296 297 297 297 298 297 299 299 299 298 296 297 298 298 298 299 305 305 305 305 304 304 304 304 305 305 305 306 306 306 305 303 302 300 299 296 295 294 295 294 293 293 292 291
296 296 296 296 298 298 297 298 296 297 298 298 298 299 301 303 304 305 304 304 304 304 305 304 304 305 305 305 306 305 304 302 301 300 299 297 296 294 294 293 294 294 292 291
297 296 297 297 297 299 297 295 297 298 298 298 300 301 301 303 303 304 304 304 304 304 304 304 304 304 305 305 306 304 303 301 302 298 298 297 296 294 294 294 294 293 292 292
296 297 297 299 298 296 296 297 297 297 299 299 300 300 301 301 301 301 302 303 304 304 304 304 304 304 305 306 306 303 301 302 301 300 296 295 295 294 294 293 293 293 292 293
296 297 299 299 296 297 297 296 297 298 299 299 299 299 299 299 298 299 300 302 303 303 305 304 304 305 305 305 305 303 302 300 299 299 296 294 293 293 293 293 292 292 292 292
Wind_Speed
15 13 17 19 19 22 23 25 27 24 22 24 22 27 23 20 24 24 25 27 26 25 27 27 27 22 22 23 29 32 36 35 42 46 46 42 41 38 34 34 34 34 34 33
16 19 19 20 20 22 22 25 26 25 22 21 19 28 24 21 23 31 32 21 21 25 25 19 13 19 20 23 25 28 35 37 36 47 47 45 42 41 37 34 35 36 34 33
15 17 7 11 16 17 19 21 21 24 21 26 21 30 34 22 21 21 26 16 12 15 11 11 9 11 15 21 23 24 29 40 39 40 45 46 40 31 31 30 31 36 36 35
12 10 13 13 17 16 21 19 19 19 18 21 19 13 40 19 21 21 10 15 5 5 6 6 1 6 9 13 18 23 26 33 36 36 41 49 50 44 38 34 31 30 35 37
15 15 13 17 18 17 19 18 14 18 18 21 34 9 35 19 26 21 11 10 10 9 5 6 9 11 13 12 14 19 25 30 36 38 41 47 51 45 35 33 30 32 34 37
24 26 17 15 15 11 13 16 20 22 19 19 32 20 29 19 19 9 1 5 4 9 14 18 15 15 14 14 14 16 21 26 34 37 39 46 51 48 43 36 37 39 39 40
16 18 13 3 11 16 7 12 7 7 12 18 24 20 21 17 7 10 6 9 9 11 10 13 17 17 15 13 10 12 18 24 33 36 37 44 50 54 54 46 41 41 42 45
13 12 5 7 5 4 4 6 7 7 12 17 21 12 11 10 23 26 17 21 18 10 12 17 22 25 25 22 20 15 15 23 29 36 39 38 48 53 50 45 47 43 44 44
6 3 4 4 3 2 3 8 5 6 17 14 14 22 27 26 20 17 20 23 26 26 26 24 26 27 25 23 21 19 19 20 25 34 37 38 45 52 51 50 50 47 45 45
2 9 4 3 4 12 11 3 6 4 5 9 15 19 16 21 22 25 25 28 34 33 34 39 44 45 42 33 25 22 20 23 24 30 36 35 43 50 52 54 51 46 43 41
2 3 6 12 9 12 10 6 4 6 7 6 11 15 12 20 26 27 29 40 40 44 43 41 42 45 44 42 39 33 29 23 23 26 33 33 35 46 49 51 48 45 42 40
3 6 13 20 21 21 18 17 4 5 6 9 12 17 20 26 24 29 36 44 42 39 39 38 41 40 37 35 39 35 33 30 27 26 32 34 33 42 46 45 45 44 45 42
5 3 10 13 8 3 8 9 10 15 16 22 16 18 21 27 29 37 34 39 36 35 36 36 38 31 28 25 25 30 31 27 25 24 28 34 38 40 42 46 46 44 41 41
1 9 12 13 17 15 20 22 19 19 12 18 20 28 31 28 28 30 30 34 32 32 34 32 28 27 23 23 21 22 21 22 24 25 25 36 38 39 42 46 45 45 40 42
7 14 15 19 19 19 21 23 23 24 24 23 22 28 25 23 25 27 32 34 27 30 26 21 28 26 20 16 15 13 15 18 22 25 26 32 38 40 42 44 43 39 39 37
14 16 13 16 17 20 23 21 25 25 24 23 18 21 20 26 33 32 36 35 30 24 12 16 21 22 21 18 11 10 14 21 26 29 29 32 36 39 41 42 44 44 43 42
14 12 11 18 17 19 17 19 21 16 16 16 15 23 21 24 23 30 34 29 24 10 10 12 13 15 14 18 18 18 16 22 18 22 28 33 34 36 42 42 42 41 40 39
18 17 12 14 17 20 20 13 5 13 14 16 18 17 21 25 32 38 11 7 8 11 11 12 14 16 15 17 19 14 19 13 11 20 23 28 28 35 39 37 38 40 38 37
19 16 14 14 16 20 22 9 5 13 19 10 14 20 27 34 33 15 13 15 13 13 9 10 11 12 16 17 14 13 13 12 7 22 23 19 29 36 37 38 37 34 33 33
15 15 12 15 16 18 16 8 5 15 16 15 22 21 22 28 11 6 16 14 12 11 11 11 14 11 13 14 12 14 12 10 3 11 18 21 28 36 40 40 38 36 35 33
11 11 14 13 13 12 19 12 14 8 9 33 31 32 31 14 14 26 21 16 12 14 14 9 12 15 12 12 10 10 11 10 7 3 15 20 28 35 40 42 38 35 35 34
13 10 12 13 16 22 13 14 6 9 28 32 32 33 30 30 28 23 20 18 19 13 14 17 15 13 14 9 9 8 5 8 6 7 11 22 29 31 35 37 36 37 32 32
12 10 10 10 7 23 19 9 17 22 26 30 31 34 23 24 25 24 23 22 21 22 18 15 17 16 14 11 7 6 1 4 4 7 16 24 29 35 35 35 36 34 35 36
13 13 11 15 17 13 26 30 22 19 27 28 23 23 23 21 22 23 24 24 22 21 21 20 18 17 13 12 7 3 3 4 5 9 14 25 30 36 37 37 36 35 35 35
13 13 15 15 15 21 21 17 20 28 24 25 20 21 21 21 21 21 23 22 21 19 19 18 17 17 16 12 9 7 5 5 6 12 20 24 32 36 40 39 36 30 28 29
15 13 9 10 17 15 24 26 28 22 21 17 19 20 20 19 21 22 21 22 21 20 19 18 18 16 16 14 10 10 8 8 8 16 23 26 29 36 38 37 33 30 30 28
Wind_Direction
256 254 251 264 270 281 287 284 284 283 291 287 282 279 277 278 276 280 271 269 270 270 270 261 250 229 217 219 215 215 221 221 219 219 216 217 215 222 223 221 222 217 211 215
242 250 262 273 279 282 280 283 282 285 281 271 279 280 282 284 278 272 269 285 279 282 269 256 252 239 219 220 216 213 223 226 229 221 224 219 219 222 223 222 218 217 217 216
259 274 279 280 266 279 273 272 276 285 295 288 283 281 275 268 271 290 284 262 260 277 286 273 229 230 224 221 216 219 219 230 232 227 224 222 218 208 206 207 211 214 214 214
282 306 293 288 274 269 273 281 292 290 290 281 292 303 280 292 282 272 255 248 242 349 350 308 223 218 228 231 231 229 224 228 231 226 226 223 219 206 206 201 205 202 209 209
254 285 252 265 274 288 284 299 292 288 283 291 280 260 278 290 287 294 295 84 115 124 101 341 323 306 291 296 249 240 236 227 232 234 232 229 221 210 201 197 196 196 202 205
275 275 271 274 281 296 315 296 273 266 265 261 270 270 276 287 277 273 120 356 356 316 328 333 334 324 312 300 284 264 242 239 236 238 237 232 222 207 200 195 193 197 201 202
292 282 240 9 277 260 243 296 283 267 239 247 271 267 269 294 289 24 14 309 340 329 325 323 324 326 325 323 300 267 254 250 258 251 244 236 225 215 213 204 196 194 199 202
282 285 277 58 3 344 299 254 266 286 287 300 303 269 266 277 317 317 16 358 343 339 312 307 306 308 313 312 308 295 266 251 254 255 245 241 234 221 215 204 201 202 203 203
317 249 93 105 339 309 137 238 298 281 266 266 260 274 276 268 282 6 355 339 324 310 303 304 305 307 296 275 275 278 267 258 244 251 247 246 239 226 216 208 211 211 206 208
35 283 263 142 302 249 230 341 253 218 268 258 266 286 284 328 349 337 323 321 316 303 302 303 300 294 287 280 268 267 259 254 250 247 253 242 239 230 222 219 218 214 209 202
296 251 251 306 252 277 247 236 228 294 267 278 277 271 308 343 319 315 315 311 308 304 300 296 297 291 282 274 272 260 258 255 246 245 253 247 237 231 225 222 221 213 206 201
68 303 281 286 281 270 271 281 318 274 289 281 290 271 301 301 304 308 303 298 298 297 293 302 297 292 285 274 266 250 249 238 250 236 247 249 246 230 223 219 217 208 199 195
23 269 308 303 158 199 185 194 299 296 286 269 276 277 293 300 299 296 299 304 304 299 303 298 294 298 292 284 267 267 267 259 244 247 247 247 244 231 224 222 214 205 197 190
278 251 244 259 287 309 291 291 292 282 271 276 269 287 289 293 304 309 301 299 302 312 299 296 311 313 302 285 267 268 265 264 259 255 253 245 242 233 224 217 210 202 188 181
239 259 260 270 282 286 282 282 281 273 274 269 278 277 291 319 311 302 304 313 321 292 306 344 334 320 330 349 321 279 250 247 277 275 256 246 234 223 217 207 199 189 182 187
231 260 271 273 278 275 275 279 279 282 273 269 289 297 292 325 314 315 313 305 304 306 354 346 357 351 356 339 333 304 293 301 291 264 250 232 218 211 207 191 182 177 175 176
252 253 253 268 283 288 275 269 275 299 311 310 301 313 339 320 316 314 304 297 298 334 355 342 333 337 323 320 319 308 285 288 284 246 228 217 212 202 192 187 184 186 183 177
248 245 248 256 272 267 269 278 288 295 294 308 331 330 326 320 316 307 285 327 356 349 353 345 348 338 333 333 327 309 286 277 260 223 221 211 205 188 181 180 173 171 167 167
235 245 256 256 259 272 288 319 360 317 304 40 342 327 327 326 322 304 3 348 342 332 328 322 331 338 339 340 345 327 291 259 262 231 211 204 196 188 184 178 174 170 165 168
222 214 235 251 272 271 285 315 323 304 296 8 340 326 319 317 309 331 332 327 320 313 323 334 332 338 348 342 336 334 319 276 293 227 217 204 195 189 182 179 174 172 175 173
256 233 241 252 259 281 301 10 319 283 318 330 322 310 309 309 295 308 328 337 324 315 306 314 328 333 348 335 338 330 327 326 261 160 200 196 188 183 179 176 177 168 163 167
282 281 273 273 273 270 350 338 358 328 309 305 302 300 302 303 309 324 325 323 317 318 319 322 320 322 333 338 334 342 335 307 300 215 187 186 175 168 175 169 159 166 169 169
272 267 282 283 276 296 313 346 312 315 298 305 305 308 314 318 323 326 328 320 308 309 310 314 324 328 321 329 326 331 10 264 271 220 195 186 179 170 167 167 161 162 176 173
279 266 265 274 281 304 315 314 314 306 301 307 312 324 324 324 323 327 330 328 316 300 306 314 314 317 316 320 326 329 264 198 250 199 204 191 188 179 177 168 167 177 182 178
272 276 272 272 278 296 295 283 302 303 308 312 320 326 330 332 327 327 325 330 328 317 305 305 312 315 316 310 302 275 240 263 250 216 207 195 191 190 185 183 176 180 174 178
267 270 262 277 290 285 283 290 295 307 310 322 326 330 339 337 332 331 329 329 328 322 315 307 309 311 312 303 289 257 262 262 244 220 209 203 194 191 188 183 176 179 178 183